Flag for Canada Weather past 2 weeks in Brampton, Ontario, Canada

Now
66 °F

Mild.


Feels Like: 66 °F
Forecast: 56 / 78 °F
Wind: 7 mph from Southeast

Location: Toronto Pearson International Airport

Current Time: Jul 3, 2015 at 8:40:27 PM

Latest Report: Jul 3, 2015 at 8:00 PM


Visibility: 15 mi

Pressure: 29.93 "Hg

Humidity: 43%

Dew point: 43 °F

Location of BramptonLocation

Historic Weather in Brampton — Graph

°F

Brampton temperature yesterday

Maximum temperature yesterday: 72 °F (at 5:00 PM)
Minimum temperature yesterday: 55 °F (at 6:00 AM)
Average temperature yesterday: 64 °F

Past Weeks' High & Low Weather Summary

 TemperatureHumidityPressure
High81 °F (Jun 21, 1:00 PM)100% (Jun 28, 11:00 AM)30.11 "Hg (Jun 28, 11:00 AM)
Low52 °F (Jul 3, 5:00 AM)31% (Jul 3, 5:00 PM)29.63 "Hg (Jun 23, 5:00 AM)
Average66 °F69%29.91 "Hg
* Reported Jun 18 7:00 PM — Jul 3 7:00 PM, Brampton, Weather by CustomWeather, © 2015

Note: Actual official high and low records may vary slightly from our data, if they occured in-between our weather recording intervals... More about our weather records

Advertising

Brampton weather history for previous 24 hours

 ConditionsComfort  
Time TempWeatherWind HumidityBarometerVisibility
7:00 PM
Fri, Jul 3
70 °FPartly sunny.7 mph38%29.94 "Hg15 mi
6:00 PM70 °FPartly sunny.8 mph35%29.94 "Hg15 mi
5:00 PM72 °FPartly sunny.7 mph31%29.95 "Hg15 mi
4:00 PM72 °FPartly sunny.8 mph33%29.97 "Hg15 mi
3:00 PM72 °FPartly sunny.6 mph36%29.98 "Hg15 mi
2:00 PM72 °FPartly sunny.9 mph36%29.98 "Hg15 mi
1:00 PM70 °FPartly sunny.7 mph40%30.00 "Hg15 mi
12:00 PM70 °FScattered clouds.7 mph38%30.00 "Hg15 mi
11:00 AM68 °FPassing clouds.3 mph43%30.01 "Hg15 mi
10:00 AM66 °FSunny.2 mph46%30.01 "Hg15 mi
9:00 AM63 °FSunny.2 mph56%30.02 "Hg15 mi
8:00 AM59 °FSunny.3 mph59%30.02 "Hg15 mi
7:00 AM55 °FSunny.8 mph63%30.02 "Hg15 mi
6:00 AM52 °FClear.8 mph67%30.01 "Hg15 mi
5:00 AM52 °FClear.5 mph67%30.00 "Hg15 mi
4:00 AM54 °FClear.7 mph63%29.99 "Hg15 mi
3:00 AM55 °FClear.9 mph59%29.99 "Hg15 mi
2:00 AM55 °FClear.10 mph63%30.00 "Hg15 mi
1:00 AM57 °FClear.10 mph59%30.00 "Hg15 mi
12:00 AM59 °FClear.8 mph51%30.00 "Hg15 mi
11:00 PM
Thu, Jul 2
61 °FClear.12 mph48%29.99 "Hg15 mi
10:00 PM63 °FPassing clouds.10 mph45%29.98 "Hg15 mi
9:00 PM64 °FPassing clouds.12 mph40%29.97 "Hg15 mi
8:00 PM66 °FPassing clouds.12 mph32%29.97 "Hg15 mi
Weather by CustomWeather, © 2015

See weather overviewHow to use our weather pages